Hillsdale, MI

9:44 PM EDT on June 22, 2017 (GMT -0400)
Hillsdale Municipal

Weather History for KJYM - September, 2013

Change the Weather History Date:

Monday, September 9, 2013

  Actual Average Record
Temperature  
Mean Temperature 71 °F -  
Max Temperature 85 °F 76 °F 95 °F (1978)
Min Temperature 57 °F 52 °F 36 °F (1986)
Cooling Degree Days 6    
Growing Degree Days 21 (Base 50)    
Moisture  
Dew Point 64 °F    
Average Humidity 84    
Maximum Humidity 100    
Minimum Humidity 55    
Precipitation  
Precipitation 0.00 in - - ()
Sea Level Pressure  
Sea Level Pressure 30.01 in    
Wind  
Wind Speed 4 mph (SE)    
Max Wind Speed 8 mph    
Max Gust Speed -    
Visibility 8 miles    
Events Rain    
Averages and records for this station are not official NWS values.
T = Trace of Precipitation, MM = Missing Value Source: NWS Daily Summary

Daily Weather History Graph

Daily Weather History Graph

Search for Another Location

Airport or City:

Trip Planner

Search our weather history database for the weather conditions in past years. The results will help you decide how hot, cold, wet, or windy it might be!

Date:

Astronomy

Sep. 09, 2013 Rise Set
Actual Time 7:12 AM EDT 7:57 PM EDT
Civil Twilight 6:44 AM EDT 8:25 PM EDT
Nautical Twilight 6:10 AM EDT 8:59 PM EDT
Astronomical Twilight 5:36 AM EDT 9:33 PM EDT
Moon 11:38 AM EDT (9/9) 10:08 PM EDT (9/9)
Length of Visible Light 13h 41m
Length of Day
12h 45m
Waxing Crescent, 19% of the Moon is Illuminated
Sep 9
Waxing Crescent
Sep 12
First Quarter
Sep 19
Full
Sep 26
Last Quarter
Oct 4
New

Hourly Weather History & Observations

Time (EDT) Temp. Heat Index Dew Point Humidity Pressure Visibility Wind Dir Wind Speed Gust Speed Precip Events Conditions
12:14 AM 60.1 °F - 58.8 °F 96% 30.06 in 10.0 mi ESE 4.6 mph - N/A   Clear
12:35 AM 59.5 °F - 58.1 °F 95% 30.07 in 10.0 mi East 3.5 mph - N/A   Clear
12:55 AM 58.8 °F - 57.0 °F 94% 30.07 in 10.0 mi ESE 3.5 mph - N/A   Clear
1:14 AM 58.5 °F - 55.8 °F 91% 30.07 in 10.0 mi East 5.8 mph - N/A   Clear
1:35 AM 58.5 °F - 54.7 °F 87% 30.07 in 10.0 mi ESE 3.5 mph - N/A   Clear
1:55 AM 57.9 °F - 54.9 °F 90% 30.08 in 10.0 mi Calm Calm - N/A   Clear
2:14 AM 57.6 °F - 54.9 °F 91% 30.08 in 10.0 mi ESE 3.5 mph - N/A   Clear
2:35 AM 58.1 °F - 55.2 °F 90% 30.07 in 10.0 mi ESE 4.6 mph - N/A   Clear
2:54 AM 58.5 °F - 55.6 °F 90% 30.07 in 10.0 mi Calm Calm - N/A   Scattered Clouds
3:15 AM 58.5 °F - 56.1 °F 92% 30.06 in 10.0 mi Calm Calm - N/A   Clear
3:35 AM 58.6 °F - 56.5 °F 93% 30.06 in 10.0 mi ESE 3.5 mph - N/A   Clear
3:54 AM 59.4 °F - 56.8 °F 91% 30.05 in 10.0 mi SE 4.6 mph - N/A   Clear
4:15 AM 60.1 °F - 55.0 °F 83% 30.04 in 10.0 mi SE 6.9 mph - N/A   Clear
4:35 AM 60.8 °F - 52.9 °F 75% 30.04 in 10.0 mi SE 6.9 mph - N/A   Scattered Clouds
4:54 AM 61.5 °F - 52.2 °F 71% 30.04 in 10.0 mi SE 8.1 mph - N/A   Overcast
5:15 AM 61.5 °F - 52.3 °F 72% 30.04 in 10.0 mi ESE 8.1 mph - N/A   Overcast
5:34 AM 59.9 °F - 55.0 °F 84% 30.06 in 1.8 mi NNE 4.6 mph - N/A Rain Heavy Rain
5:55 AM 57.9 °F - 56.5 °F 95% 30.06 in 2.5 mi East 6.9 mph - N/A Rain Heavy Rain
6:15 AM 57.6 °F - 56.8 °F 97% 30.06 in 4.0 mi East 4.6 mph - N/A Rain Heavy Rain
6:34 AM 57.6 °F - 57.0 °F 98% 30.06 in 1.8 mi NE 6.9 mph - N/A Rain Heavy Rain
6:55 AM 57.4 °F - 56.8 °F 98% 30.05 in 5.0 mi East 5.8 mph - N/A Rain Rain
7:14 AM 57.6 °F - 57.0 °F 98% 30.05 in 5.0 mi NNE 4.6 mph - N/A Rain Heavy Rain
7:34 AM 57.6 °F - 57.2 °F 99% 30.06 in 3.0 mi NNE 8.1 mph - N/A Rain Heavy Rain
7:55 AM 58.6 °F - 58.5 °F 99% 30.05 in 1.5 mi ESE 6.9 mph - N/A Rain Heavy Rain
8:14 AM 59.4 °F - 59.4 °F 100% 30.04 in 7.0 mi ESE 5.8 mph - N/A Rain Light Rain
8:35 AM 59.4 °F - 59.4 °F 100% 30.05 in 10.0 mi NE 4.6 mph - N/A   Overcast
8:55 AM 60.1 °F - 60.1 °F 100% 30.05 in 7.0 mi East 5.8 mph - N/A   Overcast
9:14 AM 60.8 °F - 60.8 °F 100% 30.04 in 5.0 mi SE 6.9 mph - N/A Rain Light Rain
9:35 AM 61.2 °F - 61.2 °F 100% 30.03 in 5.0 mi SE 6.9 mph - N/A   Light Drizzle
9:55 AM 61.2 °F - 61.2 °F 100% 30.03 in 4.0 mi SE 5.8 mph - N/A Rain Light Rain
10:14 AM 61.2 °F - 61.2 °F 100% 30.04 in 4.0 mi SSE 6.9 mph - N/A Rain Light Rain
10:35 AM 61.2 °F - 61.2 °F 100% 30.05 in 5.0 mi SE 3.5 mph - N/A   Overcast
10:55 AM 61.2 °F - 61.2 °F 100% 30.05 in 5.0 mi Calm Calm - N/A   Overcast
11:14 AM 61.7 °F - 61.7 °F 100% 30.06 in 5.0 mi North 6.9 mph - N/A   Overcast
11:35 AM 62.8 °F - 62.8 °F 100% 30.05 in 5.0 mi ENE 3.5 mph - N/A   Overcast
11:54 AM 64.4 °F - 64.2 °F 99% 30.05 in 7.0 mi East 4.6 mph - N/A   Scattered Clouds
12:14 PM 65.7 °F - 64.4 °F 96% 30.03 in 7.0 mi SE 3.5 mph - N/A   Clear
12:35 PM 68.4 °F - 66.0 °F 92% 30.03 in 7.0 mi SSE 3.5 mph - N/A   Clear
12:54 PM 69.3 °F - 66.6 °F 91% 30.02 in 7.0 mi South 3.5 mph - N/A   Clear
1:14 PM 71.2 °F - 67.5 °F 88% 30.02 in 7.0 mi SE 3.5 mph - N/A   Clear
1:34 PM 73.0 °F - 68.4 °F 85% 30.01 in 7.0 mi South 6.9 mph - N/A   Clear
1:54 PM 74.1 °F - 69.1 °F 84% 30.01 in 10.0 mi South 5.8 mph - N/A   Clear
2:15 PM 75.9 °F - 69.8 °F 81% 30.00 in 10.0 mi South 6.9 mph - N/A   Clear
2:34 PM 77.9 °F - 70.2 °F 77% 29.99 in 10.0 mi South 3.5 mph - N/A   Clear
2:54 PM 79.7 °F - 69.3 °F 70% 29.98 in 10.0 mi SSW 5.8 mph - N/A   Clear
3:15 PM 80.6 °F 83.5 °F 68.7 °F 67% 29.97 in 10.0 mi SSW 8.1 mph - N/A   Clear
3:34 PM 81.5 °F 84.8 °F 69.1 °F 66% 29.96 in 10.0 mi South 5.8 mph - N/A   Clear
3:55 PM 82.8 °F 86.4 °F 69.3 °F 64% 29.95 in 10.0 mi South 4.6 mph - N/A   Clear
4:14 PM 83.1 °F 86.3 °F 68.5 °F 61% 29.95 in 10.0 mi SSW 5.8 mph - N/A   Clear
4:34 PM 84.0 °F 87.8 °F 69.4 °F 61% 29.95 in 10.0 mi SSW 4.6 mph - N/A   Clear
4:55 PM 85.1 °F 88.8 °F 68.7 °F 58% 29.94 in 10.0 mi South 4.6 mph - N/A   Clear
5:14 PM 85.5 °F 88.5 °F 67.6 °F 55% 29.93 in 10.0 mi SSW 5.8 mph - N/A   Clear
5:35 PM 85.5 °F 89.1 °F 68.5 °F 57% 29.93 in 10.0 mi SSW 5.8 mph - N/A   Clear
5:55 PM 85.5 °F 89.1 °F 68.9 °F 57% 29.93 in 10.0 mi Calm Calm - N/A   Clear
6:14 PM 85.3 °F 89.4 °F 69.6 °F 59% 29.94 in 10.0 mi SSW 3.5 mph - N/A   Clear
6:35 PM 84.6 °F 89.4 °F 70.5 °F 63% 29.93 in 10.0 mi Calm Calm - N/A   Clear
6:55 PM 83.7 °F 88.3 °F 70.7 °F 65% 29.93 in 10.0 mi Calm Calm - N/A   Clear
7:14 PM 82.4 °F 86.7 °F 70.9 °F 68% 29.93 in 10.0 mi Calm Calm - N/A   Clear
7:35 PM 80.2 °F 84.0 °F 71.8 °F 75% 29.93 in 10.0 mi Calm Calm - N/A   Clear
7:54 PM 78.8 °F - 71.2 °F 78% 29.93 in 10.0 mi Calm Calm - N/A   Clear
8:14 PM 77.7 °F - 71.1 °F 80% 29.93 in 10.0 mi Calm Calm - N/A   Clear
8:35 PM 77.4 °F - 70.9 °F 80% 29.93 in 10.0 mi Calm Calm - N/A   Clear
8:54 PM 76.5 °F - 71.1 °F 83% 29.94 in 10.0 mi SSE 3.5 mph - N/A   Clear
9:14 PM 75.7 °F - 71.1 °F 85% 29.94 in 10.0 mi Calm Calm - N/A   Clear
9:35 PM 75.0 °F - 71.1 °F 87% 29.94 in 10.0 mi South 3.5 mph - N/A   Clear
9:54 PM 75.9 °F - 70.5 °F 83% 29.94 in 10.0 mi South 3.5 mph - N/A   Clear
10:15 PM 76.5 °F - 70.2 °F 81% 29.94 in 10.0 mi South 3.5 mph - N/A   Clear
10:35 PM 76.8 °F - 70.2 °F 80% 29.94 in 10.0 mi South 4.6 mph - N/A   Clear
10:54 PM 77.4 °F - 70.2 °F 78% 29.94 in 10.0 mi South 4.6 mph - N/A   Clear
11:15 PM 77.2 °F - 70.2 °F 79% 29.95 in 10.0 mi South 5.8 mph - N/A   Clear
11:35 PM 77.2 °F - 70.3 °F 79% 29.95 in 10.0 mi South 4.6 mph - N/A   Clear
11:54 PM 77.7 °F - 70.5 °F 78% 29.95 in 10.0 mi SSW 6.9 mph - N/A   Clear